sat.trackr.live / text

‹ back to catalog

STARLINK-32049

NORAD 60199 · 2024-124S

PAYLOAD ACTIVE UNKNOWN

§ Identity

Operator
Country
US
Launch date
2024-07-03
Launch site
AFETR
Launch vehicle
Mass (kg)
RCS (m²)

Purposes: comms

External: N2YO · Heavens-Above · Gunter

§ Orbital elements

Epoch: 2026-05-24T22:08:48.763104Z

Period
93.85 min
Inclination
53.1626°
Eccentricity
0.0000964
Mean motion
15.34427827 rev/d
Perigee alt
462.0 km
Apogee alt
463.3 km
Semi-major
6,840.8 km
B*
-2.1499e-4
RAAN
327.9539°
Arg perigee
79.4581°
Mean anomaly
280.6530°
Rev number
10,720

§ Raw data

STARLINK-320491 60199U 24124S   26144.92278661 -.00007639  00000+0 -21499-3 0  99902 60199  53.1626 327.9539 0000964  79.4581 280.6530 15.34427827107208

JSON: /api/v1/satellites/60199 · /tle

For live sub-satellite position, see the globe view (requires WebGL).

§ Visibility from observer

Set your observer location to see the next 7 days of passes ≥ 10°. The values pass through the URL so the page stays shareable.

No JS? Fill the form by hand. The geolocation button needs JavaScript.